Time,TemperatureF,DewpointF,PressureIn,WindDirection,WindDirectionDegrees,WindSpeedMPH,WindSpeedGustMPH,Humidity,HourlyPrecipIn,Conditions,Clouds,dailyrainin,SolarRadiationWatts/m^2,SoftwareType,DateUTC
2013-03-16 00:00:00,47.8,37.4,29.88,SSW,193,0.0,6.0,67,0.00,,,0.00,0,Wunderground v.1.15,2013-03-16 04:00:00,
2013-03-16 00:10:00,49.3,37.6,29.88,South,181,0.0,6.0,64,0.00,,,0.00,0,Wunderground v.1.15,2013-03-16 04:10:00,
2013-03-16 00:15:00,49.6,37.5,29.88,South,181,0.0,6.0,63,0.00,,,0.00,0,Wunderground v.1.15,2013-03-16 04:15:00,
2013-03-16 00:20:00,49.8,37.7,29.88,South,181,0.0,6.0,63,0.00,,,0.00,0,Wunderground v.1.15,2013-03-16 04:20:00,
2013-03-16 00:25:00,49.6,37.5,29.88,South,178,0.0,6.0,63,0.00,,,0.00,0,Wunderground v.1.15,2013-03-16 04:25:00,
2013-03-16 00:30:00,49.8,37.3,29.88,South,177,1.0,1.0,62,0.00,,,0.00,0,Wunderground v.1.15,2013-03-16 04:30:00,
2013-03-16 00:35:00,50.0,37.5,29.88,SSW,195,1.0,2.0,62,0.00,,,0.00,0,Wunderground v.1.15,2013-03-16 04:35:00,
2013-03-16 00:40:00,50.2,37.7,29.87,South,175,1.0,1.0,62,0.00,,,0.00,0,Wunderground v.1.15,2013-03-16 04:40:00,
2013-03-16 00:45:00,50.4,37.4,29.87,SSW,198,1.0,4.0,61,0.00,,,0.00,0,Wunderground v.1.15,2013-03-16 04:45:00,
2013-03-16 00:50:00,50.5,37.5,29.87,SSE,167,1.0,1.0,61,0.00,,,0.00,0,Wunderground v.1.15,2013-03-16 04:50:00,
2013-03-16 00:55:00,50.6,37.6,29.86,South,186,1.0,6.0,61,0.00,,,0.00,0,Wunderground v.1.15,2013-03-16 04:55:00,
2013-03-16 01:00:00,50.5,38.4,29.86,SSW,202,1.0,1.0,63,0.00,,,0.00,0,Wunderground v.1.15,2013-03-16 05:00:00,
2013-03-16 01:10:00,47.7,37.3,29.86,SSW,202,0.0,6.0,67,0.00,,,0.00,0,Wunderground v.1.15,2013-03-16 05:10:00,
2013-03-16 01:15:00,46.9,38.0,29.86,SSW,203,0.0,6.0,71,0.00,,,0.00,0,Wunderground v.1.15,2013-03-16 05:15:00,
2013-03-16 01:25:00,46.2,37.7,29.85,SSW,203,0.0,6.0,72,0.00,,,0.00,0,Wunderground v.1.15,2013-03-16 05:25:00,
2013-03-16 01:30:00,46.1,38.3,29.85,SSW,203,0.0,6.0,74,0.00,,,0.00,0,Wunderground v.1.15,2013-03-16 05:30:00,
2013-03-16 01:35:00,45.8,37.6,29.85,SSW,203,0.0,6.0,73,0.00,,,0.00,0,Wunderground v.1.15,2013-03-16 05:35:00,
2013-03-16 01:40:00,46.2,37.7,29.85,SSW,203,0.0,6.0,72,0.00,,,0.00,0,Wunderground v.1.15,2013-03-16 05:40:00,
2013-03-16 01:55:00,46.0,38.2,29.85,SSW,203,0.0,6.0,74,0.00,,,0.00,0,Wunderground v.1.15,2013-03-16 05:55:00,
2013-03-16 02:00:00,45.9,38.1,29.85,SSW,203,0.0,6.0,74,0.00,,,0.00,0,Wunderground v.1.15,2013-03-16 06:00:00,
2013-03-16 02:05:00,45.9,38.1,29.85,SSW,203,0.0,6.0,74,0.00,,,0.00,0,Wunderground v.1.15,2013-03-16 06:05:00,
2013-03-16 02:10:00,45.8,38.3,29.85,SSW,203,0.0,6.0,75,0.00,,,0.00,0,Wunderground v.1.15,2013-03-16 06:10:00,
2013-03-16 02:15:00,45.6,37.8,29.85,SSW,203,0.0,6.0,74,0.00,,,0.00,0,Wunderground v.1.15,2013-03-16 06:15:00,
2013-03-16 02:20:00,45.6,37.8,29.85,SSW,203,0.0,6.0,74,0.00,,,0.00,0,Wunderground v.1.15,2013-03-16 06:20:00,
2013-03-16 02:30:00,46.0,38.2,29.84,SSW,203,0.0,6.0,74,0.00,,,0.00,0,Wunderground v.1.15,2013-03-16 06:30:00,
2013-03-16 02:35:00,45.9,38.1,29.84,SSW,203,0.0,6.0,74,0.00,,,0.00,0,Wunderground v.1.15,2013-03-16 06:35:00,
2013-03-16 02:40:00,45.8,38.3,29.84,SSW,203,0.0,6.0,75,0.00,,,0.00,0,Wunderground v.1.15,2013-03-16 06:40:00,
2013-03-16 02:45:00,45.7,38.2,29.84,SSW,203,0.0,6.0,75,0.00,,,0.00,0,Wunderground v.1.15,2013-03-16 06:45:00,
2013-03-16 02:50:00,45.3,38.5,29.84,SSW,203,0.0,6.0,77,0.00,,,0.00,0,Wunderground v.1.15,2013-03-16 06:50:00,
2013-03-16 02:55:00,45.1,37.6,29.84,SSW,203,0.0,6.0,75,0.00,,,0.00,0,Wunderground v.1.15,2013-03-16 06:55:00,
2013-03-16 03:00:00,45.0,37.9,29.84,SSW,203,0.0,6.0,76,0.00,,,0.00,0,Wunderground v.1.15,2013-03-16 07:00:00,
2013-03-16 03:10:00,44.9,38.1,29.83,SSW,203,0.0,6.0,77,0.00,,,0.00,0,Wunderground v.1.15,2013-03-16 07:10:00,
2013-03-16 03:15:00,44.7,37.6,29.83,SSW,203,0.0,6.0,76,0.00,,,0.00,0,Wunderground v.1.15,2013-03-16 07:15:00,
2013-03-16 03:20:00,44.8,37.7,29.83,SSW,203,0.0,6.0,76,0.00,,,0.00,0,Wunderground v.1.15,2013-03-16 07:20:00,
2013-03-16 03:25:00,44.8,38.0,29.83,SSW,203,0.0,6.0,77,0.00,,,0.00,0,Wunderground v.1.15,2013-03-16 07:25:00,
2013-03-16 03:30:00,44.5,38.1,29.84,SSW,203,0.0,6.0,78,0.00,,,0.00,0,Wunderground v.1.15,2013-03-16 07:30:00,
2013-03-16 03:35:00,44.0,37.9,29.83,SSW,203,0.0,6.0,79,0.00,,,0.00,0,Wunderground v.1.15,2013-03-16 07:35:00,
2013-03-16 03:40:00,43.6,37.5,29.83,SSW,203,0.0,6.0,79,0.00,,,0.00,0,Wunderground v.1.15,2013-03-16 07:40:00,
2013-03-16 03:45:00,43.2,37.4,29.83,SSW,203,0.0,6.0,80,0.00,,,0.00,0,Wunderground v.1.15,2013-03-16 07:45:00,
2013-03-16 03:50:00,43.1,37.7,29.83,SSW,203,0.0,6.0,81,0.00,,,0.00,0,Wunderground v.1.15,2013-03-16 07:50:00,
2013-03-16 03:55:00,43.0,37.3,29.82,SSW,203,0.0,6.0,80,0.00,,,0.00,0,Wunderground v.1.15,2013-03-16 07:55:00,
2013-03-16 04:00:00,43.0,37.6,29.83,SSW,203,0.0,6.0,81,0.00,,,0.00,0,Wunderground v.1.15,2013-03-16 08:00:00,
2013-03-16 04:05:00,43.0,37.3,29.82,SSW,203,0.0,6.0,80,0.00,,,0.00,0,Wunderground v.1.15,2013-03-16 08:05:00,
2013-03-16 04:10:00,43.0,37.3,29.82,SSW,203,0.0,6.0,80,0.00,,,0.00,0,Wunderground v.1.15,2013-03-16 08:10:00,
2013-03-16 04:20:00,42.9,37.8,29.82,SSW,203,0.0,6.0,82,0.00,,,0.00,0,Wunderground v.1.15,2013-03-16 08:20:00,
2013-03-16 04:30:00,42.5,37.7,29.82,SSW,203,0.0,6.0,83,0.00,,,0.00,0,Wunderground v.1.15,2013-03-16 08:30:00,
2013-03-16 04:35:00,42.5,38.3,29.82,SSW,203,0.0,6.0,85,0.00,,,0.00,0,Wunderground v.1.15,2013-03-16 08:35:00,
2013-03-16 04:40:00,42.5,38.3,29.81,SSW,203,0.0,6.0,85,0.00,,,0.00,0,Wunderground v.1.15,2013-03-16 08:40:00,
2013-03-16 04:45:00,42.5,38.6,29.81,SSW,203,0.0,6.0,86,0.00,,,0.00,0,Wunderground v.1.15,2013-03-16 08:45:00,
2013-03-16 04:50:00,42.6,38.7,29.81,SSW,203,0.0,6.0,86,0.00,,,0.00,0,Wunderground v.1.15,2013-03-16 08:50:00,
2013-03-16 04:55:00,42.7,38.5,29.81,SSW,203,0.0,6.0,85,0.00,,,0.00,0,Wunderground v.1.15,2013-03-16 08:55:00,
2013-03-16 05:00:00,42.8,38.6,29.81,SSW,203,0.0,6.0,85,0.00,,,0.00,0,Wunderground v.1.15,2013-03-16 09:00:00,
2013-03-16 05:05:00,42.9,38.4,29.81,SSW,203,0.0,6.0,84,0.00,,,0.00,0,Wunderground v.1.15,2013-03-16 09:05:00,
2013-03-16 05:15:00,43.1,38.9,29.81,SSW,203,0.0,6.0,85,0.00,,,0.00,0,Wunderground v.1.15,2013-03-16 09:15:00,
2013-03-16 05:20:00,43.2,39.0,29.81,SSW,203,0.0,6.0,85,0.00,,,0.00,0,Wunderground v.1.15,2013-03-16 09:20:00,
2013-03-16 05:25:00,43.3,39.1,29.81,SSW,203,0.0,6.0,85,0.00,,,0.00,0,Wunderground v.1.15,2013-03-16 09:25:00,
2013-03-16 05:30:00,43.5,39.6,29.82,SSW,203,0.0,6.0,86,0.00,,,0.00,0,Wunderground v.1.15,2013-03-16 09:30:00,
2013-03-16 05:35:00,43.7,39.8,29.81,SSW,203,0.0,6.0,86,0.00,,,0.00,0,Wunderground v.1.15,2013-03-16 09:35:00,
2013-03-16 05:40:00,43.8,39.6,29.81,SSW,203,0.0,6.0,85,0.00,,,0.00,0,Wunderground v.1.15,2013-03-16 09:40:00,
2013-03-16 05:45:00,43.9,40.0,29.81,SSW,203,0.0,6.0,86,0.00,,,0.00,0,Wunderground v.1.15,2013-03-16 09:45:00,
2013-03-16 05:55:00,44.1,39.9,29.82,SSW,203,0.0,6.0,85,0.00,,,0.00,0,Wunderground v.1.15,2013-03-16 09:55:00,
2013-03-16 06:00:00,44.1,39.9,29.82,SSW,203,0.0,6.0,85,0.00,,,0.00,0,Wunderground v.1.15,2013-03-16 10:00:00,
2013-03-16 06:05:00,44.1,39.9,29.82,SSW,203,0.0,6.0,85,0.00,,,0.00,0,Wunderground v.1.15,2013-03-16 10:05:00,
2013-03-16 06:10:00,44.1,39.9,29.82,SSW,203,0.0,6.0,85,0.00,,,0.00,0,Wunderground v.1.15,2013-03-16 10:10:00,
2013-03-16 06:15:00,44.1,39.9,29.83,SSW,203,0.0,6.0,85,0.00,,,0.00,0,Wunderground v.1.15,2013-03-16 10:15:00,
2013-03-16 06:20:00,44.2,39.7,29.82,SSW,203,0.0,6.0,84,0.00,,,0.00,0,Wunderground v.1.15,2013-03-16 10:20:00,
2013-03-16 06:25:00,44.3,40.1,29.82,SSW,203,0.0,6.0,85,0.00,,,0.00,0,Wunderground v.1.15,2013-03-16 10:25:00,
2013-03-16 06:35:00,44.5,40.6,29.82,SSW,203,0.0,6.0,86,0.00,,,0.00,0,Wunderground v.1.15,2013-03-16 10:35:00,
2013-03-16 06:40:00,44.7,40.8,29.82,SSW,203,0.0,6.0,86,0.00,,,0.00,0,Wunderground v.1.15,2013-03-16 10:40:00,
2013-03-16 06:45:00,44.6,39.8,29.81,SSW,203,0.0,6.0,83,0.00,,,0.00,0,Wunderground v.1.15,2013-03-16 10:45:00,
2013-03-16 06:50:00,44.7,39.9,29.82,SSW,203,0.0,6.0,83,0.00,,,0.00,0,Wunderground v.1.15,2013-03-16 10:50:00,
2013-03-16 06:55:00,45.0,40.1,29.82,SSW,203,0.0,6.0,83,0.00,,,0.00,0,Wunderground v.1.15,2013-03-16 10:55:00,
2013-03-16 07:00:00,45.1,39.9,29.82,SSW,203,0.0,6.0,82,0.00,,,0.00,0,Wunderground v.1.15,2013-03-16 11:00:00,
2013-03-16 07:05:00,45.0,39.8,29.81,SSW,203,0.0,6.0,82,0.00,,,0.00,0,Wunderground v.1.15,2013-03-16 11:05:00,
2013-03-16 07:10:00,45.0,39.5,29.82,SSW,203,0.0,6.0,81,0.00,,,0.00,0,Wunderground v.1.15,2013-03-16 11:10:00,
2013-03-16 07:20:00,45.0,39.8,29.81,SSW,203,0.0,6.0,82,0.00,,,0.00,0,Wunderground v.1.15,2013-03-16 11:20:00,
2013-03-16 07:25:00,44.9,39.7,29.81,SSW,203,0.0,6.0,82,0.00,,,0.00,0,Wunderground v.1.15,2013-03-16 11:25:00,
2013-03-16 07:35:00,44.5,40.3,29.80,SSW,203,0.0,6.0,85,0.00,,,0.00,7,Wunderground v.1.15,2013-03-16 11:35:00,
2013-03-16 07:40:00,44.5,40.6,29.80,SSW,203,0.0,6.0,86,0.00,,,0.00,9,Wunderground v.1.15,2013-03-16 11:40:00,
2013-03-16 07:45:00,44.6,40.7,29.80,SSW,203,0.0,6.0,86,0.00,,,0.00,12,Wunderground v.1.15,2013-03-16 11:45:00,
2013-03-16 07:50:00,44.7,40.8,29.80,SSW,203,0.0,6.0,86,0.00,,,0.00,18,Wunderground v.1.15,2013-03-16 11:50:00,
2013-03-16 07:55:00,44.9,41.0,29.80,SSW,203,0.0,6.0,86,0.00,,,0.00,25,Wunderground v.1.15,2013-03-16 11:55:00,
2013-03-16 08:00:00,44.9,41.0,29.80,SSW,203,0.0,6.0,86,0.00,,,0.00,30,Wunderground v.1.15,2013-03-16 12:00:00,
2013-03-16 08:05:00,45.1,40.9,29.80,SSW,203,0.0,6.0,85,0.00,,,0.00,37,Wunderground v.1.15,2013-03-16 12:05:00,
2013-03-16 08:10:00,45.0,40.8,29.80,SSW,203,0.0,6.0,85,0.00,,,0.00,42,Wunderground v.1.15,2013-03-16 12:10:00,
2013-03-16 08:15:00,45.1,41.2,29.81,SSW,203,0.0,6.0,86,0.00,,,0.00,18,Wunderground v.1.15,2013-03-16 12:15:00,
2013-03-16 08:20:00,45.1,41.5,29.82,SSW,203,0.0,6.0,87,0.00,,,0.00,5,Wunderground v.1.15,2013-03-16 12:20:00,
2013-03-16 08:25:00,45.3,42.0,29.82,SSW,203,0.0,6.0,88,0.00,,,0.00,0,Wunderground v.1.15,2013-03-16 12:25:00,
2013-03-16 08:30:00,45.4,41.8,29.84,SSW,203,0.0,6.0,87,0.00,,,0.00,0,Wunderground v.1.15,2013-03-16 12:30:00,
2013-03-16 08:40:00,45.7,42.1,29.83,NE,38,1.0,1.0,87,0.00,,,0.01,0,Wunderground v.1.15,2013-03-16 12:40:00,
2013-03-16 08:45:00,46.3,43.2,29.81,South,172,0.0,6.0,89,0.16,,,0.02,5,Wunderground v.1.15,2013-03-16 12:45:00,
2013-03-16 08:50:00,46.4,43.6,29.81,NE,53,0.0,6.0,90,0.18,,,0.03,18,Wunderground v.1.15,2013-03-16 12:50:00,
2013-03-16 09:00:00,46.3,44.1,29.82,North,10,0.0,6.0,92,0.04,,,0.03,25,Wunderground v.1.15,2013-03-16 13:00:00,
2013-03-16 09:05:00,46.2,44.0,29.81,NNE,20,0.0,6.0,92,0.00,,,0.03,42,Wunderground v.1.15,2013-03-16 13:05:00,
2013-03-16 09:10:00,46.3,44.4,29.81,NE,54,0.0,6.0,93,0.00,,,0.03,40,Wunderground v.1.15,2013-03-16 13:10:00,
2013-03-16 09:15:00,46.4,44.5,29.81,NE,54,0.0,6.0,93,0.00,,,0.03,39,Wunderground v.1.15,2013-03-16 13:15:00,
2013-03-16 09:20:00,46.6,45.0,29.81,NE,54,0.0,6.0,94,0.00,,,0.03,25,Wunderground v.1.15,2013-03-16 13:20:00,
2013-03-16 09:25:00,46.7,45.1,29.81,NE,55,0.0,6.0,94,0.00,,,0.03,32,Wunderground v.1.15,2013-03-16 13:25:00,
2013-03-16 09:30:00,46.9,45.3,29.81,NE,55,0.0,6.0,94,0.00,,,0.03,33,Wunderground v.1.15,2013-03-16 13:30:00,
2013-03-16 09:40:00,47.2,45.3,29.81,NE,55,0.0,6.0,93,0.00,,,0.03,62,Wunderground v.1.15,2013-03-16 13:40:00,
2013-03-16 09:45:00,47.6,46.0,29.82,NE,55,0.0,6.0,94,0.00,,,0.03,76,Wunderground v.1.15,2013-03-16 13:45:00,
2013-03-16 09:50:00,48.0,46.4,29.82,NE,55,1.0,6.0,94,0.00,,,0.03,86,Wunderground v.1.15,2013-03-16 13:50:00,
2013-03-16 09:55:00,48.2,46.6,29.81,SSE,157,1.0,6.0,94,0.00,,,0.03,183,Wunderground v.1.15,2013-03-16 13:55:00,
2013-03-16 10:00:00,48.6,47.0,29.81,SSE,159,1.0,1.0,94,0.00,,,0.03,186,Wunderground v.1.15,2013-03-16 14:00:00,
2013-03-16 10:05:00,48.9,47.2,29.81,SSE,159,0.0,6.0,94,0.00,,,0.03,213,Wunderground v.1.15,2013-03-16 14:05:00,
2013-03-16 10:10:00,49.3,47.6,29.80,SSE,159,0.0,6.0,94,0.00,,,0.03,178,Wunderground v.1.15,2013-03-16 14:10:00,
2013-03-16 10:15:00,49.7,48.0,29.80,South,175,0.0,6.0,94,0.00,,,0.03,179,Wunderground v.1.15,2013-03-16 14:15:00,
2013-03-16 10:20:00,49.8,47.9,29.80,South,175,1.0,1.0,93,0.00,,,0.03,213,Wunderground v.1.15,2013-03-16 14:20:00,
2013-03-16 10:30:00,50.6,48.1,29.80,South,175,0.0,6.0,91,0.00,,,0.03,239,Wunderground v.1.15,2013-03-16 14:30:00,
2013-03-16 10:35:00,51.0,48.5,29.79,South,175,0.0,6.0,91,0.00,,,0.03,250,Wunderground v.1.15,2013-03-16 14:35:00,
2013-03-16 10:40:00,51.3,48.8,29.79,South,175,0.0,6.0,91,0.00,,,0.03,257,Wunderground v.1.15,2013-03-16 14:40:00,
2013-03-16 10:45:00,51.6,48.2,29.79,South,175,0.0,6.0,88,0.00,,,0.03,248,Wunderground v.1.15,2013-03-16 14:45:00,
2013-03-16 10:50:00,52.0,48.3,29.78,South,175,0.0,6.0,87,0.00,,,0.03,264,Wunderground v.1.15,2013-03-16 14:50:00,
2013-03-16 10:55:00,52.3,48.9,29.78,South,175,0.0,6.0,88,0.00,,,0.03,283,Wunderground v.1.15,2013-03-16 14:55:00,
2013-03-16 11:00:00,52.4,48.3,29.78,South,175,0.0,6.0,86,0.00,,,0.03,366,Wunderground v.1.15,2013-03-16 15:00:00,
2013-03-16 11:05:00,52.4,48.6,29.78,South,175,0.0,6.0,87,0.00,,,0.03,315,Wunderground v.1.15,2013-03-16 15:05:00,
2013-03-16 11:15:00,51.8,48.4,29.78,South,175,0.0,6.0,88,0.00,,,0.03,278,Wunderground v.1.15,2013-03-16 15:15:00,
2013-03-16 11:20:00,51.7,48.3,29.77,South,175,0.0,6.0,88,0.00,,,0.03,338,Wunderground v.1.15,2013-03-16 15:20:00,
2013-03-16 11:25:00,51.3,47.9,29.77,South,175,0.0,6.0,88,0.00,,,0.03,369,Wunderground v.1.15,2013-03-16 15:25:00,
2013-03-16 11:30:00,51.1,48.0,29.77,South,175,0.0,6.0,89,0.00,,,0.03,394,Wunderground v.1.15,2013-03-16 15:30:00,
2013-03-16 11:40:00,52.2,49.1,29.76,South,175,0.0,6.0,89,0.00,,,0.03,376,Wunderground v.1.15,2013-03-16 15:40:00,
2013-03-16 11:45:00,53.5,49.4,29.76,South,175,0.0,6.0,86,0.00,,,0.03,420,Wunderground v.1.15,2013-03-16 15:45:00,
2013-03-16 11:50:00,53.9,50.1,29.75,South,175,0.0,6.0,87,0.00,,,0.03,357,Wunderground v.1.15,2013-03-16 15:50:00,
2013-03-16 11:55:00,54.7,50.9,29.75,South,175,0.0,6.0,87,0.00,,,0.03,304,Wunderground v.1.15,2013-03-16 15:55:00,
2013-03-16 12:00:00,55.5,50.7,29.75,South,175,0.0,6.0,84,0.00,,,0.03,302,Wunderground v.1.15,2013-03-16 16:00:00,
2013-03-16 12:05:00,56.5,50.7,29.75,SSW,209,0.0,6.0,81,0.00,,,0.03,334,Wunderground v.1.15,2013-03-16 16:05:00,
2013-03-16 12:10:00,57.5,51.0,29.74,SSW,209,0.0,6.0,79,0.00,,,0.03,364,Wunderground v.1.15,2013-03-16 16:10:00,
2013-03-16 12:15:00,59.9,52.3,29.74,SSW,208,0.0,6.0,76,0.00,,,0.03,362,Wunderground v.1.15,2013-03-16 16:15:00,
2013-03-16 12:20:00,61.5,51.2,29.74,SSW,207,0.0,6.0,69,0.00,,,0.03,413,Wunderground v.1.15,2013-03-16 16:20:00,
2013-03-16 12:25:00,62.7,50.8,29.74,SSE,147,0.0,6.0,65,0.00,,,0.03,492,Wunderground v.1.15,2013-03-16 16:25:00,
2013-03-16 12:35:00,64.8,50.1,29.74,SSW,206,3.0,3.0,59,0.00,,,0.03,531,Wunderground v.1.15,2013-03-16 16:35:00,
2013-03-16 12:40:00,65.6,50.9,29.73,SSW,203,3.0,7.0,59,0.00,,,0.03,689,Wunderground v.1.15,2013-03-16 16:40:00,
2013-03-16 12:45:00,65.9,49.8,29.73,SSW,199,3.0,7.0,56,0.00,,,0.03,612,Wunderground v.1.15,2013-03-16 16:45:00,
2013-03-16 12:50:00,66.3,50.6,29.73,South,188,3.0,6.0,57,0.00,,,0.03,457,Wunderground v.1.15,2013-03-16 16:50:00,
2013-03-16 13:00:00,66.8,50.1,29.73,SW,235,3.0,3.0,55,0.00,,,0.03,633,Wunderground v.1.15,2013-03-16 17:00:00,
2013-03-16 13:05:00,67.1,50.4,29.72,SW,234,2.0,6.0,55,0.00,,,0.03,515,Wunderground v.1.15,2013-03-16 17:05:00,
2013-03-16 13:10:00,67.9,51.1,29.72,South,175,4.0,6.0,55,0.00,,,0.03,554,Wunderground v.1.15,2013-03-16 17:10:00,
2013-03-16 13:15:00,68.1,50.3,29.72,SW,230,5.0,6.0,53,0.00,,,0.03,613,Wunderground v.1.15,2013-03-16 17:15:00,
2013-03-16 13:20:00,68.2,51.4,29.72,WSW,246,5.0,6.0,55,0.00,,,0.03,557,Wunderground v.1.15,2013-03-16 17:20:00,
2013-03-16 13:30:00,68.8,51.0,29.72,SSW,198,6.0,6.0,53,0.00,,,0.03,367,Wunderground v.1.15,2013-03-16 17:30:00,
2013-03-16 13:35:00,69.1,50.2,29.71,SW,225,7.0,8.0,51,0.00,,,0.03,346,Wunderground v.1.15,2013-03-16 17:35:00,
2013-03-16 13:40:00,68.6,50.8,29.71,WSW,241,7.0,10.0,53,0.00,,,0.03,427,Wunderground v.1.15,2013-03-16 17:40:00,
2013-03-16 13:50:00,68.7,50.4,29.71,SSW,206,7.0,10.0,52,0.00,,,0.03,515,Wunderground v.1.15,2013-03-16 17:50:00,
2013-03-16 13:55:00,68.9,50.5,29.71,SSW,200,8.0,10.0,52,0.00,,,0.03,545,Wunderground v.1.15,2013-03-16 17:55:00,
2013-03-16 14:05:00,69.2,50.3,29.70,SW,216,9.0,9.0,51,0.00,,,0.03,538,Wunderground v.1.15,2013-03-16 18:05:00,
2013-03-16 14:10:00,69.5,50.6,29.69,SSW,210,9.0,9.0,51,0.00,,,0.03,573,Wunderground v.1.15,2013-03-16 18:10:00,
2013-03-16 14:15:00,69.4,51.0,29.69,South,184,8.0,9.0,52,0.00,,,0.03,606,Wunderground v.1.15,2013-03-16 18:15:00,
2013-03-16 14:20:00,69.5,51.1,29.69,SSW,213,9.0,9.0,52,0.00,,,0.03,520,Wunderground v.1.15,2013-03-16 18:20:00,
2013-03-16 14:25:00,69.6,50.7,29.69,WSW,243,9.0,9.0,51,0.00,,,0.03,506,Wunderground v.1.15,2013-03-16 18:25:00,
2013-03-16 14:30:00,69.3,50.9,29.69,SSW,200,7.0,12.0,52,0.00,,,0.03,552,Wunderground v.1.15,2013-03-16 18:30:00,
2013-03-16 14:35:00,69.4,50.5,29.68,SSW,192,9.0,12.0,51,0.00,,,0.03,531,Wunderground v.1.15,2013-03-16 18:35:00,
2013-03-16 14:40:00,69.8,50.9,29.68,SW,218,10.0,11.0,51,0.00,,,0.03,596,Wunderground v.1.15,2013-03-16 18:40:00,
2013-03-16 14:45:00,69.7,50.8,29.68,SW,232,10.0,13.0,51,0.00,,,0.03,536,Wunderground v.1.15,2013-03-16 18:45:00,
2013-03-16 14:50:00,69.9,50.9,29.67,SSW,193,10.0,10.0,51,0.00,,,0.03,534,Wunderground v.1.15,2013-03-16 18:50:00,
2013-03-16 14:55:00,69.7,51.3,29.67,SSW,192,10.0,16.0,52,0.00,,,0.03,483,Wunderground v.1.15,2013-03-16 18:55:00,
2013-03-16 15:01:00,69.8,50.9,29.67,SSW,213,11.0,17.0,51,0.00,,,0.03,452,Wunderground v.1.15,2013-03-16 19:01:00,
2013-03-16 15:10:00,70.0,51.0,29.67,SSW,192,10.0,10.0,51,0.00,,,0.03,504,Wunderground v.1.15,2013-03-16 19:10:00,
2013-03-16 15:15:00,69.8,50.9,29.66,SSW,192,11.0,16.0,51,0.00,,,0.03,540,Wunderground v.1.15,2013-03-16 19:15:00,
2013-03-16 15:20:00,69.9,50.9,29.66,SSW,211,13.0,13.0,51,0.00,,,0.03,534,Wunderground v.1.15,2013-03-16 19:20:00,
2013-03-16 15:25:00,70.4,51.4,29.66,SW,222,12.0,13.0,51,0.00,,,0.03,494,Wunderground v.1.15,2013-03-16 19:25:00,
2013-03-16 15:30:00,70.3,51.3,29.66,SSW,203,9.0,9.0,51,0.00,,,0.03,436,Wunderground v.1.15,2013-03-16 19:30:00,
2013-03-16 15:35:00,70.4,50.9,29.65,South,182,8.0,9.0,50,0.00,,,0.03,387,Wunderground v.1.15,2013-03-16 19:35:00,
2013-03-16 15:40:00,70.3,51.3,29.65,SSW,199,10.0,10.0,51,0.00,,,0.03,339,Wunderground v.1.15,2013-03-16 19:40:00,
2013-03-16 15:50:00,70.6,51.1,29.65,South,188,11.0,11.0,50,0.00,,,0.03,360,Wunderground v.1.15,2013-03-16 19:50:00,
2013-03-16 15:55:00,70.6,51.1,29.65,SSW,195,11.0,15.0,50,0.00,,,0.03,322,Wunderground v.1.15,2013-03-16 19:55:00,
2013-03-16 16:00:00,70.4,51.4,29.65,SSW,209,12.0,12.0,51,0.00,,,0.03,346,Wunderground v.1.15,2013-03-16 20:00:00,
2013-03-16 16:10:00,70.7,51.1,29.64,SSW,205,12.0,12.0,50,0.00,,,0.03,385,Wunderground v.1.15,2013-03-16 20:10:00,
2013-03-16 16:15:00,71.4,51.2,29.64,SW,223,10.0,12.0,49,0.00,,,0.03,367,Wunderground v.1.15,2013-03-16 20:15:00,
2013-03-16 16:25:00,71.5,51.9,29.64,SSW,213,11.0,11.0,50,0.00,,,0.03,323,Wunderground v.1.15,2013-03-16 20:25:00,
2013-03-16 16:30:00,72.0,51.8,29.64,SSW,207,11.0,11.0,49,0.00,,,0.03,376,Wunderground v.1.15,2013-03-16 20:30:00,
2013-03-16 16:35:00,72.0,51.2,29.63,SW,230,11.0,11.0,48,0.00,,,0.03,353,Wunderground v.1.15,2013-03-16 20:35:00,
2013-03-16 16:40:00,72.0,51.2,29.63,SW,219,12.0,18.0,48,0.00,,,0.03,258,Wunderground v.1.15,2013-03-16 20:40:00,
2013-03-16 16:50:00,71.9,51.1,29.62,South,191,13.0,18.0,48,0.00,,,0.03,213,Wunderground v.1.15,2013-03-16 20:50:00,
2013-03-16 16:55:00,71.5,51.3,29.62,SW,234,14.0,18.0,49,0.00,,,0.03,202,Wunderground v.1.15,2013-03-16 20:55:00,
2013-03-16 17:00:00,72.3,50.9,29.62,SW,215,12.0,12.0,47,0.00,,,0.03,181,Wunderground v.1.15,2013-03-16 21:00:00,
2013-03-16 17:05:00,72.4,51.0,29.62,SSW,207,12.0,15.0,47,0.00,,,0.03,178,Wunderground v.1.15,2013-03-16 21:05:00,
2013-03-16 17:10:00,72.0,51.2,29.61,SSW,212,12.0,12.0,48,0.00,,,0.03,171,Wunderground v.1.15,2013-03-16 21:10:00,
2013-03-16 17:15:00,71.8,51.0,29.60,South,180,11.0,12.0,48,0.00,,,0.03,163,Wunderground v.1.15,2013-03-16 21:15:00,
2013-03-16 17:20:00,72.1,51.3,29.60,SSW,211,12.0,12.0,48,0.00,,,0.03,163,Wunderground v.1.15,2013-03-16 21:20:00,
2013-03-16 17:30:00,72.1,51.3,29.60,SSW,195,11.0,11.0,48,0.00,,,0.03,148,Wunderground v.1.15,2013-03-16 21:30:00,
2013-03-16 17:35:00,71.8,51.6,29.60,South,171,11.0,12.0,49,0.00,,,0.03,186,Wunderground v.1.15,2013-03-16 21:35:00,
2013-03-16 17:40:00,72.0,51.2,29.59,SSE,164,12.0,12.0,48,0.00,,,0.03,283,Wunderground v.1.15,2013-03-16 21:40:00,
2013-03-16 17:45:00,72.6,51.2,29.59,South,170,12.0,15.0,47,0.00,,,0.03,255,Wunderground v.1.15,2013-03-16 21:45:00,
2013-03-16 17:50:00,72.8,51.4,29.58,SSW,200,12.0,13.0,47,0.00,,,0.03,257,Wunderground v.1.15,2013-03-16 21:50:00,
2013-03-16 17:55:00,72.8,50.8,29.59,South,177,12.0,13.0,46,0.00,,,0.03,253,Wunderground v.1.15,2013-03-16 21:55:00,
2013-03-16 18:00:00,72.8,51.4,29.59,SSW,203,11.0,11.0,47,0.00,,,0.03,225,Wunderground v.1.15,2013-03-16 22:00:00,
2013-03-16 18:05:00,72.8,51.4,29.59,SSW,207,11.0,11.0,47,0.00,,,0.03,160,Wunderground v.1.15,2013-03-16 22:05:00,
2013-03-16 18:15:00,73.1,51.1,29.59,SSW,211,11.0,14.0,46,0.00,,,0.03,188,Wunderground v.1.15,2013-03-16 22:15:00,
2013-03-16 18:20:00,73.0,51.0,29.60,SW,227,10.0,12.0,46,0.00,,,0.03,149,Wunderground v.1.15,2013-03-16 22:20:00,
2013-03-16 18:25:00,73.5,51.4,29.60,SW,216,9.0,12.0,46,0.00,,,0.03,107,Wunderground v.1.15,2013-03-16 22:25:00,
2013-03-16 18:30:00,72.9,51.5,29.60,SSW,200,8.0,10.0,47,0.00,,,0.03,102,Wunderground v.1.15,2013-03-16 22:30:00,
2013-03-16 18:40:00,72.6,51.2,29.59,SSW,197,10.0,10.0,47,0.00,,,0.03,72,Wunderground v.1.15,2013-03-16 22:40:00,
2013-03-16 18:45:00,72.5,51.1,29.59,SSW,203,11.0,11.0,47,0.00,,,0.03,60,Wunderground v.1.15,2013-03-16 22:45:00,
2013-03-16 18:50:00,72.9,51.5,29.59,SW,227,12.0,12.0,47,0.00,,,0.03,37,Wunderground v.1.15,2013-03-16 22:50:00,
2013-03-16 19:00:00,72.4,51.0,29.61,SSW,213,8.0,8.0,47,0.00,,,0.03,14,Wunderground v.1.15,2013-03-16 23:00:00,
2013-03-16 19:05:00,72.5,51.1,29.61,SW,218,6.0,11.0,47,0.00,,,0.03,5,Wunderground v.1.15,2013-03-16 23:05:00,
2013-03-16 19:15:00,72.4,51.0,29.63,WSW,238,5.0,8.0,47,0.00,,,0.03,0,Wunderground v.1.15,2013-03-16 23:15:00,
2013-03-16 19:20:00,71.5,51.3,29.67,NNW,340,4.0,6.0,49,0.00,,,0.03,0,Wunderground v.1.15,2013-03-16 23:20:00,
2013-03-16 19:25:00,71.3,52.2,29.70,NNW,346,8.0,9.0,51,0.00,,,0.03,0,Wunderground v.1.15,2013-03-16 23:25:00,
2013-03-16 19:30:00,68.9,54.4,29.74,NE,54,13.0,13.0,60,0.00,,,0.03,0,Wunderground v.1.15,2013-03-16 23:30:00,
2013-03-16 19:35:00,65.8,56.5,29.74,North,11,11.0,22.0,72,0.40,,,0.05,0,Wunderground v.1.15,2013-03-16 23:35:00,
2013-03-16 19:45:00,61.2,56.3,29.75,NNE,22,8.0,9.0,84,0.12,,,0.08,0,Wunderground v.1.15,2013-03-16 23:45:00,
2013-03-16 19:55:00,60.4,56.5,29.75,WSW,245,2.0,6.0,87,0.04,,,0.08,0,Wunderground v.1.15,2013-03-16 23:55:00,
2013-03-16 20:00:00,60.2,56.3,29.75,WSW,245,0.0,6.0,87,0.04,,,0.09,0,Wunderground v.1.15,2013-03-17 00:00:00,
2013-03-16 20:05:00,59.8,55.6,29.75,WSW,245,0.0,6.0,86,0.04,,,0.09,0,Wunderground v.1.15,2013-03-17 00:05:00,
2013-03-16 20:10:00,59.4,55.8,29.75,WSW,245,0.0,6.0,88,0.04,,,0.09,0,Wunderground v.1.15,2013-03-17 00:10:00,
2013-03-16 20:15:00,59.2,56.0,29.75,WSW,245,0.0,6.0,89,0.00,,,0.09,0,Wunderground v.1.15,2013-03-17 00:15:00,
2013-03-16 20:25:00,58.8,55.9,29.76,WSW,245,0.0,6.0,90,0.00,,,0.09,0,Wunderground v.1.15,2013-03-17 00:25:00,
2013-03-16 20:30:00,58.6,56.0,29.75,WSW,245,0.0,6.0,91,0.00,,,0.09,0,Wunderground v.1.15,2013-03-17 00:30:00,
2013-03-16 20:40:00,58.2,55.9,29.76,WSW,245,0.0,6.0,92,0.00,,,0.09,0,Wunderground v.1.15,2013-03-17 00:40:00,
2013-03-16 20:45:00,57.8,55.5,29.76,WSW,245,0.0,6.0,92,0.00,,,0.09,0,Wunderground v.1.15,2013-03-17 00:45:00,
2013-03-16 20:50:00,57.4,55.1,29.76,WSW,245,0.0,6.0,92,0.00,,,0.09,0,Wunderground v.1.15,2013-03-17 00:50:00,
2013-03-16 20:55:00,57.0,54.7,29.77,WSW,245,0.0,6.0,92,0.00,,,0.09,0,Wunderground v.1.15,2013-03-17 00:55:00,
2013-03-16 21:00:00,56.1,53.5,29.77,WSW,245,0.0,6.0,91,0.00,,,0.09,0,Wunderground v.1.15,2013-03-17 01:00:00,
2013-03-16 21:05:00,56.2,54.2,29.77,WSW,245,0.0,6.0,93,0.00,,,0.09,0,Wunderground v.1.15,2013-03-17 01:05:00,
2013-03-16 21:15:00,56.5,55.1,29.76,WSW,245,0.0,6.0,95,0.00,,,0.09,0,Wunderground v.1.15,2013-03-17 01:15:00,
2013-03-16 21:20:00,56.6,54.9,29.77,WSW,245,0.0,6.0,94,0.00,,,0.09,0,Wunderground v.1.15,2013-03-17 01:20:00,
2013-03-16 21:25:00,56.2,54.5,29.77,WSW,245,0.0,6.0,94,0.00,,,0.09,0,Wunderground v.1.15,2013-03-17 01:25:00,
2013-03-16 21:30:00,55.8,54.1,29.77,WSW,245,0.0,6.0,94,0.00,,,0.09,0,Wunderground v.1.15,2013-03-17 01:30:00,
2013-03-16 21:35:00,55.7,54.0,29.78,WSW,245,0.0,6.0,94,0.00,,,0.09,0,Wunderground v.1.15,2013-03-17 01:35:00,
2013-03-16 21:40:00,56.2,55.1,29.78,WSW,245,0.0,6.0,96,0.00,,,0.09,0,Wunderground v.1.15,2013-03-17 01:40:00,
2013-03-16 21:45:00,56.6,55.5,29.78,WSW,245,0.0,6.0,96,0.00,,,0.09,0,Wunderground v.1.15,2013-03-17 01:45:00,
2013-03-16 21:50:00,56.7,55.6,29.77,WSW,245,0.0,6.0,96,0.00,,,0.09,0,Wunderground v.1.15,2013-03-17 01:50:00,
2013-03-16 22:00:00,54.9,52.9,29.78,WSW,245,0.0,6.0,93,0.00,,,0.09,0,Wunderground v.1.15,2013-03-17 02:00:00,
2013-03-16 22:10:00,53.7,51.7,29.78,WSW,245,0.0,6.0,93,0.00,,,0.09,0,Wunderground v.1.15,2013-03-17 02:10:00,
2013-03-16 22:15:00,53.3,51.6,29.78,WSW,245,0.0,6.0,94,0.00,,,0.09,0,Wunderground v.1.15,2013-03-17 02:15:00,
2013-03-16 22:20:00,53.5,52.1,29.78,WSW,245,0.0,6.0,95,0.00,,,0.09,0,Wunderground v.1.15,2013-03-17 02:20:00,
2013-03-16 22:25:00,54.1,53.0,29.79,WSW,245,0.0,6.0,96,0.00,,,0.09,0,Wunderground v.1.15,2013-03-17 02:25:00,
2013-03-16 22:30:00,54.3,53.2,29.79,WSW,245,0.0,6.0,96,0.00,,,0.09,0,Wunderground v.1.15,2013-03-17 02:30:00,
2013-03-16 22:40:00,54.2,53.1,29.79,WSW,245,0.0,6.0,96,0.00,,,0.09,0,Wunderground v.1.15,2013-03-17 02:40:00,
2013-03-16 22:45:00,53.9,52.5,29.79,WSW,245,0.0,6.0,95,0.00,,,0.09,0,Wunderground v.1.15,2013-03-17 02:45:00,
2013-03-16 22:50:00,53.2,51.8,29.79,WSW,245,0.0,6.0,95,0.00,,,0.09,0,Wunderground v.1.15,2013-03-17 02:50:00,
2013-03-16 22:55:00,52.7,51.3,29.79,WSW,245,0.0,6.0,95,0.00,,,0.09,0,Wunderground v.1.15,2013-03-17 02:55:00,
2013-03-16 23:00:00,52.4,51.0,29.79,WSW,245,0.0,6.0,95,0.00,,,0.09,0,Wunderground v.1.15,2013-03-17 03:00:00,
2013-03-16 23:05:00,52.3,50.9,29.79,WSW,245,0.0,6.0,95,0.00,,,0.09,0,Wunderground v.1.15,2013-03-17 03:05:00,
2013-03-16 23:10:00,52.3,50.9,29.80,WSW,245,0.0,6.0,95,0.00,,,0.09,0,Wunderground v.1.15,2013-03-17 03:10:00,
2013-03-16 23:15:00,52.2,51.1,29.80,WSW,245,0.0,6.0,96,0.00,,,0.09,0,Wunderground v.1.15,2013-03-17 03:15:00,
2013-03-16 23:20:00,52.0,50.6,29.80,WSW,245,0.0,6.0,95,0.00,,,0.09,0,Wunderground v.1.15,2013-03-17 03:20:00,
2013-03-16 23:25:00,51.7,50.3,29.80,WSW,245,0.0,6.0,95,0.00,,,0.09,0,Wunderground v.1.15,2013-03-17 03:25:00,
2013-03-16 23:35:00,51.2,49.8,29.81,WSW,245,0.0,6.0,95,0.00,,,0.09,0,Wunderground v.1.15,2013-03-17 03:35:00,
2013-03-16 23:40:00,51.4,50.3,29.80,WSW,245,0.0,6.0,96,0.00,,,0.09,0,Wunderground v.1.15,2013-03-17 03:40:00,
2013-03-16 23:45:00,52.0,51.2,29.80,WSW,245,0.0,6.0,97,0.00,,,0.09,0,Wunderground v.1.15,2013-03-17 03:45:00,
2013-03-16 23:50:00,52.0,50.9,29.81,WSW,242,0.0,6.0,96,0.00,,,0.09,0,Wunderground v.1.15,2013-03-17 03:50:00,
2013-03-16 23:55:00,51.5,50.4,29.81,SSW,196,1.0,6.0,96,0.00,,,0.09,0,Wunderground v.1.15,2013-03-17 03:55:00,